Time,TemperatureF,DewpointF,PressureIn,WindDirection,WindDirectionDegrees,WindSpeedMPH,WindSpeedGustMPH,Humidity,HourlyPrecipIn,Conditions,Clouds,dailyrainin,SoftwareType,DateUTC
2013-09-25 00:00:00,60.8,48.6,31.01,North,0,0.0,0.0,64,0.00,,---,0.00,VWS V14.01,2013-09-25 05:00:00,
2013-09-25 00:05:00,60.6,48.8,31.01,North,0,0.0,0.0,65,0.00,,---,0.00,VWS V14.01,2013-09-25 05:05:00,
2013-09-25 00:10:00,60.4,48.6,31.01,North,0,0.0,0.0,65,0.00,,---,0.00,VWS V14.01,2013-09-25 05:10:00,
2013-09-25 00:16:00,60.4,48.6,31.01,NNW,337,0.0,0.0,65,0.00,,---,0.00,VWS V14.01,2013-09-25 05:16:00,
2013-09-25 00:21:00,60.3,48.5,31.01,NNW,337,0.0,0.0,65,0.00,,---,0.00,VWS V14.01,2013-09-25 05:21:00,
2013-09-25 00:26:00,60.3,48.5,31.01,WSW,256,0.0,0.0,65,0.00,,---,0.00,VWS V14.01,2013-09-25 05:26:00,
2013-09-25 00:32:00,60.3,48.5,31.01,WSW,256,0.0,0.0,65,0.00,,---,0.00,VWS V14.01,2013-09-25 05:32:00,
2013-09-25 00:37:00,60.3,48.9,31.01,WSW,256,0.0,0.0,66,0.00,,---,0.00,VWS V14.01,2013-09-25 05:37:00,
2013-09-25 00:43:00,60.1,48.7,31.01,WSW,256,0.0,0.0,66,0.00,,---,0.00,VWS V14.01,2013-09-25 05:43:00,
2013-09-25 00:48:00,60.1,48.7,31.01,WSW,256,0.0,0.0,66,0.00,,---,0.00,VWS V14.01,2013-09-25 05:48:00,
2013-09-25 00:53:00,60.1,48.7,31.01,WSW,256,0.0,0.0,66,0.00,,---,0.00,VWS V14.01,2013-09-25 05:53:00,
2013-09-25 00:58:00,59.7,48.8,31.01,WSW,256,0.0,0.0,67,0.00,,---,0.00,VWS V14.01,2013-09-25 05:58:00,
2013-09-25 01:04:00,59.7,48.8,31.01,WSW,256,0.0,0.0,67,0.00,,---,0.00,VWS V14.01,2013-09-25 06:04:00,
2013-09-25 01:10:00,59.7,48.8,31.01,WSW,256,0.0,0.0,67,0.00,,---,0.00,VWS V14.01,2013-09-25 06:10:00,
2013-09-25 01:15:00,59.7,48.8,31.01,WSW,256,0.0,0.0,67,0.00,,---,0.00,VWS V14.01,2013-09-25 06:15:00,
2013-09-25 01:20:00,59.7,48.8,31.01,WSW,256,0.0,0.0,67,0.00,,---,0.00,VWS V14.01,2013-09-25 06:20:00,
2013-09-25 01:25:00,59.2,48.6,31.01,WSW,256,0.0,0.0,68,0.00,,---,0.00,VWS V14.01,2013-09-25 06:25:00,
2013-09-25 01:31:00,59.2,48.6,31.01,WSW,256,0.0,0.0,68,0.00,,---,0.00,VWS V14.01,2013-09-25 06:31:00,
2013-09-25 01:36:00,58.6,48.5,31.01,WSW,256,0.0,0.0,69,0.00,,---,0.00,VWS V14.01,2013-09-25 06:36:00,
2013-09-25 01:42:00,58.5,48.3,31.01,WSW,256,0.0,0.0,69,0.00,,---,0.00,VWS V14.01,2013-09-25 06:42:00,
2013-09-25 01:48:00,58.3,48.5,31.01,WSW,256,0.0,0.0,70,0.00,,---,0.00,VWS V14.01,2013-09-25 06:48:00,
2013-09-25 01:53:00,57.9,48.6,31.01,WSW,256,0.0,0.0,71,0.00,,---,0.00,VWS V14.01,2013-09-25 06:53:00,
2013-09-25 01:59:00,57.9,48.6,31.01,WSW,256,0.0,0.0,71,0.00,,---,0.00,VWS V14.01,2013-09-25 06:59:00,
2013-09-25 02:04:00,57.6,48.2,31.01,WSW,256,0.0,0.0,71,0.00,,---,0.00,VWS V14.01,2013-09-25 07:04:00,
2013-09-25 02:09:00,57.4,48.4,31.01,WSW,256,0.0,0.0,72,0.00,,---,0.00,VWS V14.01,2013-09-25 07:09:00,
2013-09-25 02:14:00,57.4,48.4,31.01,WSW,256,0.0,0.0,72,0.00,,---,0.00,VWS V14.01,2013-09-25 07:14:00,
2013-09-25 02:20:00,57.4,48.4,31.01,WSW,256,0.0,0.0,72,0.00,,---,0.00,VWS V14.01,2013-09-25 07:20:00,
2013-09-25 02:25:00,57.4,48.4,31.01,WSW,256,0.0,0.0,72,0.00,,---,0.00,VWS V14.01,2013-09-25 07:25:00,
2013-09-25 02:31:00,57.0,48.8,31.01,WSW,256,0.0,0.0,74,0.00,,---,0.00,VWS V14.01,2013-09-25 07:31:00,
2013-09-25 02:36:00,57.0,48.8,31.01,WSW,256,0.0,0.0,74,0.00,,---,0.00,VWS V14.01,2013-09-25 07:36:00,
2013-09-25 02:42:00,57.0,48.8,31.01,WSW,256,0.0,0.0,74,0.00,,---,0.00,VWS V14.01,2013-09-25 07:42:00,
2013-09-25 02:47:00,56.8,48.7,31.01,WSW,256,0.0,0.0,74,0.00,,---,0.00,VWS V14.01,2013-09-25 07:47:00,
2013-09-25 02:53:00,56.8,48.7,31.01,WSW,256,0.0,0.0,74,0.00,,---,0.00,VWS V14.01,2013-09-25 07:53:00,
2013-09-25 02:58:00,56.7,48.8,31.01,WSW,256,0.0,0.0,75,0.00,,---,0.00,VWS V14.01,2013-09-25 07:58:00,
2013-09-25 03:03:00,56.7,49.2,31.01,WSW,256,0.0,0.0,76,0.00,,---,0.00,VWS V14.01,2013-09-25 08:03:00,
2013-09-25 03:08:00,56.7,49.2,31.01,WSW,256,0.0,0.0,76,0.00,,---,0.00,VWS V14.01,2013-09-25 08:08:00,
2013-09-25 03:13:00,56.5,49.0,31.01,WSW,256,0.0,0.0,76,0.00,,---,0.00,VWS V14.01,2013-09-25 08:13:00,
2013-09-25 03:19:00,56.3,49.2,31.01,WSW,256,0.0,0.0,77,0.00,,---,0.00,VWS V14.01,2013-09-25 08:19:00,
2013-09-25 03:24:00,56.3,49.2,31.01,WSW,256,0.0,0.0,77,0.00,,---,0.00,VWS V14.01,2013-09-25 08:24:00,
2013-09-25 03:30:00,56.3,49.2,31.01,WSW,256,0.0,0.0,77,0.00,,---,0.00,VWS V14.01,2013-09-25 08:30:00,
2013-09-25 03:35:00,56.3,49.2,31.01,WSW,256,0.0,0.0,77,0.00,,---,0.00,VWS V14.01,2013-09-25 08:35:00,
2013-09-25 03:41:00,56.1,49.4,31.01,WSW,256,0.0,0.0,78,0.00,,---,0.00,VWS V14.01,2013-09-25 08:41:00,
2013-09-25 03:46:00,56.1,49.7,31.01,WSW,256,0.0,0.0,79,0.00,,---,0.00,VWS V14.01,2013-09-25 08:46:00,
2013-09-25 03:52:00,55.9,49.5,31.01,WSW,256,0.0,0.0,79,0.00,,---,0.00,VWS V14.01,2013-09-25 08:52:00,
2013-09-25 03:58:00,55.9,49.5,31.01,WSW,256,0.0,0.0,79,0.00,,---,0.00,VWS V14.01,2013-09-25 08:58:00,
2013-09-25 04:03:00,55.9,49.5,31.01,WSW,256,0.0,0.0,79,0.00,,---,0.00,VWS V14.01,2013-09-25 09:03:00,
2013-09-25 04:09:00,55.6,49.2,31.01,WSW,256,0.0,0.0,79,0.00,,---,0.00,VWS V14.01,2013-09-25 09:09:00,
2013-09-25 04:15:00,55.6,49.5,31.01,WSW,256,0.0,0.0,80,0.00,,---,0.00,VWS V14.01,2013-09-25 09:15:00,
2013-09-25 04:20:00,55.4,49.3,31.01,WSW,256,0.0,0.0,80,0.00,,---,0.00,VWS V14.01,2013-09-25 09:20:00,
2013-09-25 04:25:00,55.4,49.3,31.01,WSW,256,0.0,0.0,80,0.00,,---,0.00,VWS V14.01,2013-09-25 09:25:00,
2013-09-25 04:31:00,55.2,49.5,31.01,WSW,256,0.0,0.0,81,0.00,,---,0.00,VWS V14.01,2013-09-25 09:31:00,
2013-09-25 04:36:00,55.2,49.5,31.01,WSW,256,0.0,0.0,81,0.00,,---,0.00,VWS V14.01,2013-09-25 09:36:00,
2013-09-25 04:41:00,55.0,49.3,31.01,WSW,256,0.0,0.0,81,0.00,,---,0.00,VWS V14.01,2013-09-25 09:41:00,
2013-09-25 04:46:00,54.9,49.2,31.01,WSW,256,0.0,0.0,81,0.00,,---,0.00,VWS V14.01,2013-09-25 09:46:00,
2013-09-25 04:52:00,54.9,49.2,31.01,WSW,256,0.0,0.0,81,0.00,,---,0.00,VWS V14.01,2013-09-25 09:52:00,
2013-09-25 04:58:00,54.7,49.0,31.01,WSW,256,0.0,0.0,81,0.00,,---,0.00,VWS V14.01,2013-09-25 09:58:00,
2013-09-25 05:04:00,54.7,49.3,31.01,WSW,256,0.0,0.0,82,0.00,,---,0.00,VWS V14.01,2013-09-25 10:04:00,
2013-09-25 05:09:00,54.7,49.3,31.01,WSW,256,0.0,0.0,82,0.00,,---,0.00,VWS V14.01,2013-09-25 10:09:00,
2013-09-25 05:14:00,54.5,49.1,31.01,WSW,256,0.0,0.0,82,0.00,,---,0.00,VWS V14.01,2013-09-25 10:14:00,
2013-09-25 05:19:00,54.5,49.1,31.01,WSW,256,0.0,0.0,82,0.00,,---,0.00,VWS V14.01,2013-09-25 10:19:00,
2013-09-25 05:24:00,54.5,49.1,31.01,WSW,256,0.0,0.0,82,0.00,,---,0.00,VWS V14.01,2013-09-25 10:24:00,
2013-09-25 05:30:00,54.5,49.1,31.01,WSW,256,0.0,0.0,82,0.00,,---,0.00,VWS V14.01,2013-09-25 10:30:00,
2013-09-25 05:35:00,54.3,49.0,31.01,WSW,256,0.0,0.0,82,0.00,,---,0.00,VWS V14.01,2013-09-25 10:35:00,
2013-09-25 05:41:00,54.1,49.1,31.01,WSW,256,0.0,0.0,83,0.00,,---,0.00,VWS V14.01,2013-09-25 10:41:00,
2013-09-25 05:46:00,54.1,49.1,31.01,WSW,256,0.0,0.0,83,0.00,,---,0.00,VWS V14.01,2013-09-25 10:46:00,
2013-09-25 05:51:00,54.1,49.1,31.01,WSW,256,0.0,0.0,83,0.00,,---,0.00,VWS V14.01,2013-09-25 10:51:00,
2013-09-25 05:57:00,54.0,48.9,31.01,WSW,256,0.0,0.0,83,0.00,,---,0.00,VWS V14.01,2013-09-25 10:57:00,
2013-09-25 06:02:00,54.0,48.9,31.01,WSW,256,0.0,0.0,83,0.00,,---,0.00,VWS V14.01,2013-09-25 11:02:00,
2013-09-25 06:08:00,53.8,48.8,31.01,WSW,256,0.0,0.0,83,0.00,,---,0.00,VWS V14.01,2013-09-25 11:08:00,
2013-09-25 06:13:00,53.6,48.6,31.01,WSW,256,0.0,0.0,83,0.00,,---,0.00,VWS V14.01,2013-09-25 11:13:00,
2013-09-25 06:19:00,53.8,49.1,31.01,WSW,256,0.0,0.0,84,0.00,,---,0.00,VWS V14.01,2013-09-25 11:19:00,
2013-09-25 06:24:00,53.8,49.1,31.01,WSW,256,0.0,0.0,84,0.00,,---,0.00,VWS V14.01,2013-09-25 11:24:00,
2013-09-25 06:29:00,53.4,48.7,31.01,WSW,256,0.0,0.0,84,0.00,,---,0.00,VWS V14.01,2013-09-25 11:29:00,
2013-09-25 06:34:00,53.6,48.9,31.01,WSW,256,0.0,0.0,84,0.00,,---,0.00,VWS V14.01,2013-09-25 11:34:00,
2013-09-25 06:40:00,53.4,48.7,31.01,WSW,256,0.0,0.0,84,0.00,,---,0.00,VWS V14.01,2013-09-25 11:40:00,
2013-09-25 06:46:00,53.4,48.7,31.01,WSW,256,0.0,0.0,84,0.00,,---,0.00,VWS V14.01,2013-09-25 11:46:00,
2013-09-25 06:51:00,53.2,48.5,31.01,WSW,256,0.0,0.0,84,0.00,,---,0.00,VWS V14.01,2013-09-25 11:51:00,
2013-09-25 06:57:00,53.1,48.4,31.01,WSW,256,0.0,0.0,84,0.00,,---,0.00,VWS V14.01,2013-09-25 11:57:00,
2013-09-25 07:03:00,53.1,48.4,31.01,WSW,256,0.0,0.0,84,0.00,,---,0.00,VWS V14.01,2013-09-25 12:03:00,
2013-09-25 07:08:00,53.1,48.7,31.01,WSW,256,0.0,0.0,85,0.00,,---,0.00,VWS V14.01,2013-09-25 12:08:00,
2013-09-25 07:13:00,53.1,48.7,31.01,WSW,256,0.0,0.0,85,0.00,,---,0.00,VWS V14.01,2013-09-25 12:13:00,
2013-09-25 07:18:00,53.1,48.7,31.01,WSW,256,0.0,0.0,85,0.00,,---,0.00,VWS V14.01,2013-09-25 12:18:00,
2013-09-25 07:23:00,53.1,48.7,31.01,WSW,256,0.0,0.0,85,0.00,,---,0.00,VWS V14.01,2013-09-25 12:23:00,
2013-09-25 07:29:00,53.1,48.7,31.01,WSW,256,0.0,0.0,85,0.00,,---,0.00,VWS V14.01,2013-09-25 12:29:00,
2013-09-25 07:33:00,53.1,48.7,31.01,WSW,256,0.0,0.0,85,0.00,,---,0.00,VWS V14.01,2013-09-25 12:33:00,
2013-09-25 07:39:00,53.4,49.3,31.01,WSW,256,0.0,0.0,86,0.00,,---,0.00,VWS V14.01,2013-09-25 12:39:00,
2013-09-25 07:44:00,53.4,49.3,31.01,WSW,256,0.0,0.0,86,0.00,,---,0.00,VWS V14.01,2013-09-25 12:44:00,
2013-09-25 07:50:00,53.4,49.3,31.01,WSW,256,0.0,0.0,86,0.00,,---,0.00,VWS V14.01,2013-09-25 12:50:00,
2013-09-25 07:56:00,54.1,50.4,31.01,WSW,256,0.0,0.0,87,0.00,,---,0.00,VWS V14.01,2013-09-25 12:56:00,
2013-09-25 08:01:00,54.5,50.7,31.01,WSW,256,0.0,0.0,87,0.00,,---,0.00,VWS V14.01,2013-09-25 13:01:00,
2013-09-25 08:07:00,54.9,51.4,31.01,WSW,256,0.0,0.0,88,0.00,,---,0.00,VWS V14.01,2013-09-25 13:07:00,
2013-09-25 08:13:00,55.8,52.3,31.01,WSW,256,0.0,0.0,88,0.00,,---,0.00,VWS V14.01,2013-09-25 13:13:00,
2013-09-25 08:18:00,55.9,52.4,31.01,WSW,256,0.0,0.0,88,0.00,,---,0.00,VWS V14.01,2013-09-25 13:18:00,
2013-09-25 08:23:00,57.0,53.8,31.01,WSW,256,0.0,0.0,89,0.00,,---,0.00,VWS V14.01,2013-09-25 13:23:00,
2013-09-25 08:28:00,57.4,54.2,31.01,WSW,256,0.0,0.0,89,0.00,,---,0.00,VWS V14.01,2013-09-25 13:28:00,
2013-09-25 08:33:00,58.3,55.4,31.01,WSW,256,0.0,0.0,90,0.00,,---,0.00,VWS V14.01,2013-09-25 13:33:00,
2013-09-25 08:39:00,59.7,56.8,31.01,WSW,256,0.0,0.0,90,0.00,,---,0.00,VWS V14.01,2013-09-25 13:39:00,
2013-09-25 08:45:00,59.7,56.8,31.01,WSW,256,0.0,0.0,90,0.00,,---,0.00,VWS V14.01,2013-09-25 13:45:00,
2013-09-25 08:50:00,61.9,59.2,31.01,WSW,256,0.0,0.0,91,0.00,,---,0.00,VWS V14.01,2013-09-25 13:50:00,
2013-09-25 08:56:00,63.0,60.0,31.01,NNE,14,0.0,0.0,90,0.00,,---,0.00,VWS V14.01,2013-09-25 13:56:00,
2013-09-25 09:01:00,63.1,60.2,31.01,NNE,14,0.0,0.0,90,0.00,,---,0.00,VWS V14.01,2013-09-25 14:01:00,
2013-09-25 09:06:00,64.0,60.7,31.01,NE,34,0.0,0.0,89,0.00,,---,0.00,VWS V14.01,2013-09-25 14:06:00,
2013-09-25 09:11:00,64.9,61.3,31.01,NE,35,0.0,0.0,88,0.00,,---,0.00,VWS V14.01,2013-09-25 14:11:00,
2013-09-25 09:17:00,65.7,61.7,31.01,NE,35,0.0,0.0,87,0.00,,---,0.00,VWS V14.01,2013-09-25 14:17:00,
2013-09-25 09:23:00,66.6,61.2,31.01,NE,41,0.0,0.0,83,0.00,,---,0.00,VWS V14.01,2013-09-25 14:23:00,
2013-09-25 09:28:00,67.3,60.9,31.01,East,79,0.0,0.0,80,0.00,,---,0.00,VWS V14.01,2013-09-25 14:28:00,
2013-09-25 09:33:00,67.6,59.8,31.01,NE,36,0.0,0.0,76,0.00,,---,0.00,VWS V14.01,2013-09-25 14:33:00,
2013-09-25 09:38:00,68.2,59.2,31.01,NE,52,0.0,0.0,73,0.00,,---,0.00,VWS V14.01,2013-09-25 14:38:00,
2013-09-25 09:43:00,69.3,59.1,31.01,ESE,118,0.0,0.0,70,0.00,,---,0.00,VWS V14.01,2013-09-25 14:43:00,
2013-09-25 09:49:00,70.2,56.1,31.01,SSE,150,0.0,0.0,61,0.00,,---,0.00,VWS V14.01,2013-09-25 14:49:00,
2013-09-25 09:55:00,70.2,56.1,31.01,SSE,147,0.0,0.0,61,0.00,,---,0.00,VWS V14.01,2013-09-25 14:55:00,
2013-09-25 10:00:00,71.1,55.1,31.01,ESE,121,0.0,0.0,57,0.00,,---,0.00,VWS V14.01,2013-09-25 15:00:00,
2013-09-25 10:06:00,72.3,53.2,31.01,ESE,121,0.0,0.0,51,0.00,,---,0.00,VWS V14.01,2013-09-25 15:06:00,
2013-09-25 10:11:00,72.5,52.3,31.01,ESE,111,0.0,0.0,49,0.00,,---,0.00,VWS V14.01,2013-09-25 15:11:00,
2013-09-25 10:17:00,73.0,51.6,31.01,ESE,111,0.0,0.0,47,0.00,,---,0.00,VWS V14.01,2013-09-25 15:17:00,
2013-09-25 10:23:00,73.2,50.0,31.01,ESE,114,0.0,0.0,44,0.00,,---,0.00,VWS V14.01,2013-09-25 15:23:00,
2013-09-25 10:28:00,73.2,50.0,31.01,ESE,114,0.0,0.0,44,0.00,,---,0.00,VWS V14.01,2013-09-25 15:28:00,
2013-09-25 10:34:00,74.8,50.2,31.01,South,176,0.0,0.0,42,0.00,,---,0.00,VWS V14.01,2013-09-25 15:34:00,
2013-09-25 10:40:00,75.9,49.9,31.01,South,173,0.0,0.0,40,0.00,,---,0.00,VWS V14.01,2013-09-25 15:40:00,
2013-09-25 10:45:00,76.3,48.8,31.01,SSE,165,0.0,0.0,38,0.00,,---,0.00,VWS V14.01,2013-09-25 15:45:00,
2013-09-25 10:51:00,77.0,48.8,31.01,SE,130,0.0,0.0,37,0.00,,---,0.00,VWS V14.01,2013-09-25 15:51:00,
2013-09-25 10:56:00,77.0,48.8,31.01,NE,43,0.0,0.0,37,0.00,,---,0.00,VWS V14.01,2013-09-25 15:56:00,
2013-09-25 11:02:00,78.3,49.1,31.01,NE,50,0.0,0.0,36,0.00,,---,0.00,VWS V14.01,2013-09-25 16:02:00,
2013-09-25 11:07:00,78.4,47.0,31.01,NE,44,0.0,0.0,33,0.00,,---,0.00,VWS V14.01,2013-09-25 16:07:00,
2013-09-25 11:13:00,78.6,47.9,31.01,East,83,0.0,0.0,34,0.00,,---,0.00,VWS V14.01,2013-09-25 16:13:00,
2013-09-25 11:18:00,79.0,47.5,31.01,SSE,149,0.0,0.0,33,0.00,,---,0.00,VWS V14.01,2013-09-25 16:18:00,
2013-09-25 11:23:00,79.7,46.4,31.01,SSE,149,0.0,0.0,31,0.00,,---,0.00,VWS V14.01,2013-09-25 16:23:00,
2013-09-25 11:29:00,79.7,47.3,31.01,NE,50,0.0,0.0,32,0.00,,---,0.00,VWS V14.01,2013-09-25 16:29:00,
2013-09-25 11:34:00,80.2,46.0,31.01,SSE,164,0.0,0.0,30,0.00,,---,0.00,VWS V14.01,2013-09-25 16:34:00,
2013-09-25 11:40:00,80.8,46.5,31.01,NE,45,0.0,0.0,30,0.00,,---,0.00,VWS V14.01,2013-09-25 16:40:00,
2013-09-25 11:45:00,80.8,46.5,31.01,NNE,24,0.0,0.0,30,0.00,,---,0.00,VWS V14.01,2013-09-25 16:45:00,
2013-09-25 11:51:00,81.7,46.4,31.01,NE,56,0.0,0.0,29,0.00,,---,0.00,VWS V14.01,2013-09-25 16:51:00,
2013-09-25 11:57:00,82.0,47.6,31.01,ESE,108,0.0,0.0,30,0.00,,---,0.00,VWS V14.01,2013-09-25 16:57:00,
2013-09-25 12:02:00,82.0,47.6,31.01,NE,36,0.0,0.0,30,0.00,,---,0.00,VWS V14.01,2013-09-25 17:02:00,
2013-09-25 12:08:00,82.4,47.0,31.01,ESE,122,0.0,0.0,29,0.00,,---,0.00,VWS V14.01,2013-09-25 17:08:00,
2013-09-25 12:13:00,82.4,47.0,31.01,ESE,116,0.0,0.0,29,0.00,,---,0.00,VWS V14.01,2013-09-25 17:13:00,
2013-09-25 12:18:00,83.3,46.8,31.01,ESE,116,0.0,0.0,28,0.00,,---,0.00,VWS V14.01,2013-09-25 17:18:00,
2013-09-25 12:23:00,83.5,47.0,31.01,East,96,0.0,0.0,28,0.00,,---,0.00,VWS V14.01,2013-09-25 17:23:00,
2013-09-25 12:29:00,84.2,46.6,31.01,East,93,0.0,0.0,27,0.00,,---,0.00,VWS V14.01,2013-09-25 17:29:00,
2013-09-25 12:34:00,84.0,44.5,31.01,WSW,246,0.0,0.0,25,0.00,,---,0.00,VWS V14.01,2013-09-25 17:34:00,
2013-09-25 12:40:00,84.0,44.5,31.01,East,85,0.0,0.0,25,0.00,,---,0.00,VWS V14.01,2013-09-25 17:40:00,
2013-09-25 12:46:00,84.0,44.5,31.01,ENE,78,0.0,0.0,25,0.00,,---,0.00,VWS V14.01,2013-09-25 17:46:00,
2013-09-25 12:51:00,84.7,45.1,31.01,SSW,199,0.0,0.0,25,0.00,,---,0.00,VWS V14.01,2013-09-25 17:51:00,
2013-09-25 12:57:00,84.7,45.1,31.01,SSE,150,0.0,0.0,25,0.00,,---,0.00,VWS V14.01,2013-09-25 17:57:00,
2013-09-25 13:02:00,85.8,47.0,31.01,ENE,66,0.0,0.0,26,0.00,,---,0.00,VWS V14.01,2013-09-25 18:02:00,
2013-09-25 13:08:00,87.1,46.0,31.01,NE,37,0.0,0.0,24,0.00,,---,0.00,VWS V14.01,2013-09-25 18:08:00,
2013-09-25 13:14:00,87.1,46.0,31.01,NE,37,0.0,0.0,24,0.00,,---,0.00,VWS V14.01,2013-09-25 18:14:00,
2013-09-25 13:19:00,87.1,43.7,31.01,ESE,104,0.0,0.0,22,0.00,,---,0.00,VWS V14.01,2013-09-25 18:19:00,
2013-09-25 13:25:00,87.1,43.7,31.01,East,91,0.0,0.0,22,0.00,,---,0.00,VWS V14.01,2013-09-25 18:25:00,
2013-09-25 13:30:00,86.7,44.5,31.01,SSE,161,0.0,0.0,23,0.00,,---,0.00,VWS V14.01,2013-09-25 18:30:00,
2013-09-25 13:36:00,86.9,43.5,31.01,WSW,248,0.0,0.0,22,0.00,,---,0.00,VWS V14.01,2013-09-25 18:36:00,
2013-09-25 13:42:00,86.9,43.5,31.01,WSW,245,0.0,0.0,22,0.00,,---,0.00,VWS V14.01,2013-09-25 18:42:00,
2013-09-25 13:47:00,86.0,42.8,31.01,South,183,0.0,0.0,22,0.00,,---,0.00,VWS V14.01,2013-09-25 18:47:00,
2013-09-25 13:52:00,86.7,43.4,31.01,ESE,115,0.0,0.0,22,0.00,,---,0.00,VWS V14.01,2013-09-25 18:52:00,
2013-09-25 13:58:00,87.4,42.8,31.01,WSW,250,0.0,0.0,21,0.00,,---,0.00,VWS V14.01,2013-09-25 18:58:00,
2013-09-25 14:04:00,87.1,42.5,31.01,SSE,159,0.0,0.0,21,0.00,,---,0.00,VWS V14.01,2013-09-25 19:04:00,
2013-09-25 14:10:00,87.1,42.5,31.01,East,82,0.0,0.0,21,0.00,,---,0.00,VWS V14.01,2013-09-25 19:10:00,
2013-09-25 14:15:00,87.1,42.5,31.01,SE,124,0.0,0.0,21,0.00,,---,0.00,VWS V14.01,2013-09-25 19:15:00,
2013-09-25 14:21:00,87.1,42.5,31.01,NE,41,0.0,0.0,21,0.00,,---,0.00,VWS V14.01,2013-09-25 19:21:00,
2013-09-25 14:26:00,87.8,43.0,31.01,SSE,153,0.0,0.0,21,0.00,,---,0.00,VWS V14.01,2013-09-25 19:26:00,
2013-09-25 14:31:00,87.8,43.0,31.01,SW,231,0.0,0.0,21,0.00,,---,0.00,VWS V14.01,2013-09-25 19:31:00,
2013-09-25 14:36:00,87.8,43.0,31.01,NE,54,0.0,0.0,21,0.00,,---,0.00,VWS V14.01,2013-09-25 19:36:00,
2013-09-25 14:42:00,88.5,42.4,31.01,South,177,0.0,0.0,20,0.00,,---,0.00,VWS V14.01,2013-09-25 19:42:00,
2013-09-25 14:47:00,88.3,42.2,31.01,SE,130,0.0,0.0,20,0.00,,---,0.00,VWS V14.01,2013-09-25 19:47:00,
2013-09-25 14:52:00,87.6,41.6,31.01,SW,225,0.0,0.0,20,0.00,,---,0.00,VWS V14.01,2013-09-25 19:52:00,
2013-09-25 14:57:00,87.6,41.6,31.01,WNW,301,0.0,0.0,20,0.00,,---,0.00,VWS V14.01,2013-09-25 19:57:00,
2013-09-25 15:03:00,86.2,40.5,31.01,ESE,114,0.0,0.0,20,0.00,,---,0.00,VWS V14.01,2013-09-25 20:03:00,
2013-09-25 15:08:00,85.8,41.4,31.01,SW,223,0.0,0.0,21,0.00,,---,0.00,VWS V14.01,2013-09-25 20:08:00,
2013-09-25 15:14:00,86.4,41.9,31.01,SW,221,0.0,0.0,21,0.00,,---,0.00,VWS V14.01,2013-09-25 20:14:00,
2013-09-25 15:19:00,87.1,42.5,31.01,SSW,211,0.0,0.0,21,0.00,,---,0.00,VWS V14.01,2013-09-25 20:19:00,
2013-09-25 15:25:00,87.4,41.5,31.01,ENE,59,0.0,0.0,20,0.00,,---,0.00,VWS V14.01,2013-09-25 20:25:00,
2013-09-25 15:31:00,87.4,41.5,31.01,SSE,154,0.0,0.0,20,0.00,,---,0.00,VWS V14.01,2013-09-25 20:31:00,
2013-09-25 15:36:00,87.3,41.3,31.01,SSE,154,0.0,0.0,20,0.00,,---,0.00,VWS V14.01,2013-09-25 20:36:00,
2013-09-25 15:41:00,87.3,41.3,31.01,SSE,155,2.2,2.2,20,0.00,,---,0.00,VWS V14.01,2013-09-25 20:41:00,
2013-09-25 15:46:00,87.1,41.2,31.01,ENE,75,0.0,0.0,20,0.00,,---,0.00,VWS V14.01,2013-09-25 20:46:00,
2013-09-25 15:52:00,86.9,41.0,31.01,South,182,0.0,0.0,20,0.00,,---,0.00,VWS V14.01,2013-09-25 20:52:00,
2013-09-25 15:57:00,86.9,41.0,31.01,ESE,119,0.0,0.0,20,0.00,,---,0.00,VWS V14.01,2013-09-25 20:57:00,
2013-09-25 16:03:00,86.9,41.0,31.01,SSE,159,0.0,0.0,20,0.00,,---,0.00,VWS V14.01,2013-09-25 21:03:00,
2013-09-25 16:08:00,86.4,39.3,31.01,SSE,149,0.0,0.0,19,0.00,,---,0.00,VWS V14.01,2013-09-25 21:08:00,
2013-09-25 16:14:00,86.0,40.3,31.01,SE,134,0.0,0.0,20,0.00,,---,0.00,VWS V14.01,2013-09-25 21:14:00,
2013-09-25 16:19:00,86.0,40.3,31.01,SSE,159,0.0,0.0,20,0.00,,---,0.00,VWS V14.01,2013-09-25 21:19:00,
2013-09-25 16:24:00,86.0,40.3,31.01,ESE,120,0.0,0.0,20,0.00,,---,0.00,VWS V14.01,2013-09-25 21:24:00,
2013-09-25 16:30:00,86.7,40.9,31.01,ENE,71,0.0,0.0,20,0.00,,---,0.00,VWS V14.01,2013-09-25 21:30:00,
2013-09-25 16:35:00,86.2,40.5,31.01,SW,214,0.0,0.0,20,0.00,,---,0.00,VWS V14.01,2013-09-25 21:35:00,
2013-09-25 16:41:00,85.6,40.0,31.01,SE,143,0.0,0.0,20,0.00,,---,0.00,VWS V14.01,2013-09-25 21:41:00,
2013-09-25 16:46:00,85.6,40.0,31.01,SSW,199,0.0,0.0,20,0.00,,---,0.00,VWS V14.01,2013-09-25 21:46:00,
2013-09-25 16:52:00,84.0,39.9,31.01,SSE,153,0.0,0.0,21,0.00,,---,0.00,VWS V14.01,2013-09-25 21:52:00,
2013-09-25 16:57:00,84.0,39.9,31.01,SSE,153,0.0,0.0,21,0.00,,---,0.00,VWS V14.01,2013-09-25 21:57:00,
2013-09-25 17:02:00,82.6,39.9,31.01,East,96,0.0,0.0,22,0.00,,---,0.00,VWS V14.01,2013-09-25 22:02:00,
2013-09-25 17:07:00,82.6,39.9,31.01,West,263,0.0,0.0,22,0.00,,---,0.00,VWS V14.01,2013-09-25 22:07:00,
2013-09-25 17:13:00,82.6,39.9,31.01,West,276,0.0,0.0,22,0.00,,---,0.00,VWS V14.01,2013-09-25 22:13:00,
2013-09-25 17:18:00,80.4,40.4,31.01,South,190,0.0,0.0,24,0.00,,---,0.00,VWS V14.01,2013-09-25 22:18:00,
2013-09-25 17:24:00,79.7,39.8,31.01,South,179,0.0,0.0,24,0.00,,---,0.00,VWS V14.01,2013-09-25 22:24:00,
2013-09-25 17:29:00,79.2,40.3,31.01,SSW,207,0.0,0.0,25,0.00,,---,0.00,VWS V14.01,2013-09-25 22:29:00,
2013-09-25 17:34:00,79.2,40.3,31.01,SSE,160,0.0,0.0,25,0.00,,---,0.00,VWS V14.01,2013-09-25 22:34:00,
2013-09-25 17:40:00,78.6,42.8,31.01,South,172,0.0,0.0,28,0.00,,---,0.00,VWS V14.01,2013-09-25 22:40:00,
2013-09-25 17:45:00,78.3,42.5,31.01,SE,131,0.0,0.0,28,0.00,,---,0.00,VWS V14.01,2013-09-25 22:45:00,
2013-09-25 17:51:00,77.7,43.0,31.01,SE,131,0.0,0.0,29,0.00,,---,0.00,VWS V14.01,2013-09-25 22:51:00,
2013-09-25 17:56:00,77.7,43.0,31.01,SE,125,0.0,0.0,29,0.00,,---,0.00,VWS V14.01,2013-09-25 22:56:00,
2013-09-25 18:02:00,77.4,43.5,31.01,SE,126,0.0,0.0,30,0.00,,---,0.00,VWS V14.01,2013-09-25 23:02:00,
2013-09-25 18:07:00,77.2,43.4,31.01,ESE,102,0.0,0.0,30,0.00,,---,0.00,VWS V14.01,2013-09-25 23:07:00,
2013-09-25 18:13:00,77.0,43.2,31.01,East,83,0.0,0.0,30,0.00,,---,0.00,VWS V14.01,2013-09-25 23:13:00,
2013-09-25 18:19:00,76.6,43.8,31.01,SE,138,0.0,0.0,31,0.00,,---,0.00,VWS V14.01,2013-09-25 23:19:00,
2013-09-25 18:24:00,76.6,43.8,31.01,WSW,244,0.0,0.0,31,0.00,,---,0.00,VWS V14.01,2013-09-25 23:24:00,
2013-09-25 18:30:00,76.1,43.3,31.01,SSE,157,0.0,0.0,31,0.00,,---,0.00,VWS V14.01,2013-09-25 23:30:00,
2013-09-25 18:36:00,75.7,43.0,31.01,SE,144,0.0,0.0,31,0.00,,---,0.00,VWS V14.01,2013-09-25 23:36:00,
2013-09-25 18:41:00,75.7,43.0,31.01,SSE,156,0.0,0.0,31,0.00,,---,0.00,VWS V14.01,2013-09-25 23:41:00,
2013-09-25 18:46:00,75.2,42.5,31.01,SSE,158,0.0,0.0,31,0.00,,---,0.00,VWS V14.01,2013-09-25 23:46:00,
2013-09-25 18:52:00,75.2,42.5,31.01,ESE,122,0.0,0.0,31,0.00,,---,0.00,VWS V14.01,2013-09-25 23:52:00,
2013-09-25 18:58:00,74.5,42.7,31.01,SSW,207,0.0,0.0,32,0.00,,---,0.00,VWS V14.01,2013-09-25 23:58:00,
2013-09-25 19:03:00,74.3,42.6,31.01,SSW,207,0.0,0.0,32,0.00,,---,0.00,VWS V14.01,2013-09-26 00:03:00,
2013-09-25 19:09:00,73.6,42.7,31.01,SSW,207,0.0,0.0,33,0.00,,---,0.00,VWS V14.01,2013-09-26 00:09:00,
2013-09-25 19:14:00,73.4,43.3,31.01,SSE,167,0.0,0.0,34,0.00,,---,0.00,VWS V14.01,2013-09-26 00:14:00,
2013-09-25 19:19:00,73.4,43.3,31.01,South,189,0.0,0.0,34,0.00,,---,0.00,VWS V14.01,2013-09-26 00:19:00,
2013-09-25 19:25:00,72.9,43.6,31.01,South,189,0.0,0.0,35,0.00,,---,0.00,VWS V14.01,2013-09-26 00:25:00,
2013-09-25 19:30:00,72.5,44.1,31.01,South,187,0.0,0.0,36,0.00,,---,0.00,VWS V14.01,2013-09-26 00:30:00,
2013-09-25 19:35:00,72.1,45.2,31.01,South,186,0.0,0.0,38,0.00,,---,0.00,VWS V14.01,2013-09-26 00:35:00,
2013-09-25 19:40:00,72.0,45.0,31.01,South,176,0.0,0.0,38,0.00,,---,0.00,VWS V14.01,2013-09-26 00:40:00,
2013-09-25 19:46:00,72.0,45.0,31.01,South,176,0.0,0.0,38,0.00,,---,0.00,VWS V14.01,2013-09-26 00:46:00,
2013-09-25 19:51:00,72.0,45.0,31.01,South,176,0.0,0.0,38,0.00,,---,0.00,VWS V14.01,2013-09-26 00:51:00,
2013-09-25 19:56:00,71.2,47.0,31.01,SSE,150,0.0,0.0,42,0.00,,---,0.00,VWS V14.01,2013-09-26 00:56:00,
2013-09-25 20:01:00,70.9,47.3,31.01,SSE,157,0.0,0.0,43,0.00,,---,0.00,VWS V14.01,2013-09-26 01:01:00,
2013-09-25 20:06:00,70.7,47.7,31.01,East,100,0.0,0.0,44,0.00,,---,0.00,VWS V14.01,2013-09-26 01:06:00,
2013-09-25 20:12:00,70.7,47.7,31.01,SE,126,0.0,0.0,44,0.00,,---,0.00,VWS V14.01,2013-09-26 01:12:00,
2013-09-25 20:17:00,70.7,47.7,31.01,SSW,192,0.0,0.0,44,0.00,,---,0.00,VWS V14.01,2013-09-26 01:17:00,
2013-09-25 20:22:00,70.3,47.4,31.01,SSE,165,0.0,0.0,44,0.00,,---,0.00,VWS V14.01,2013-09-26 01:22:00,
2013-09-25 20:28:00,70.0,48.3,31.01,East,79,0.0,0.0,46,0.00,,---,0.00,VWS V14.01,2013-09-26 01:28:00,
2013-09-25 20:33:00,70.0,48.8,31.01,ESE,115,0.0,0.0,47,0.00,,---,0.00,VWS V14.01,2013-09-26 01:33:00,
2013-09-25 20:39:00,70.0,48.8,31.01,East,95,0.0,0.0,47,0.00,,---,0.00,VWS V14.01,2013-09-26 01:39:00,
2013-09-25 20:44:00,69.6,50.2,31.01,SE,146,0.0,0.0,50,0.00,,---,0.00,VWS V14.01,2013-09-26 01:44:00,
2013-09-25 20:49:00,69.6,50.2,31.01,NE,38,0.0,0.0,50,0.00,,---,0.00,VWS V14.01,2013-09-26 01:49:00,
2013-09-25 20:54:00,69.4,50.5,31.01,WNW,283,0.0,0.0,51,0.00,,---,0.00,VWS V14.01,2013-09-26 01:54:00,
2013-09-25 21:00:00,69.3,50.4,31.01,SSE,167,0.0,0.0,51,0.00,,---,0.00,VWS V14.01,2013-09-26 02:00:00,
2013-09-25 21:05:00,69.3,50.4,31.01,SE,128,0.0,0.0,51,0.00,,---,0.00,VWS V14.01,2013-09-26 02:05:00,
2013-09-25 21:10:00,68.9,50.6,31.01,ESE,122,0.0,0.0,52,0.00,,---,0.00,VWS V14.01,2013-09-26 02:10:00,
2013-09-25 21:15:00,68.9,50.6,31.01,SE,143,0.0,0.0,52,0.00,,---,0.00,VWS V14.01,2013-09-26 02:15:00,
2013-09-25 21:20:00,68.7,51.4,31.01,East,79,0.0,0.0,54,0.00,,---,0.00,VWS V14.01,2013-09-26 02:20:00,
2013-09-25 21:25:00,68.7,51.4,31.01,East,93,0.0,0.0,54,0.00,,---,0.00,VWS V14.01,2013-09-26 02:25:00,
2013-09-25 21:31:00,68.7,51.4,31.01,East,79,0.0,0.0,54,0.00,,---,0.00,VWS V14.01,2013-09-26 02:31:00,
2013-09-25 21:36:00,68.4,51.6,31.01,ESE,121,0.0,0.0,55,0.00,,---,0.00,VWS V14.01,2013-09-26 02:36:00,
2013-09-25 21:42:00,68.2,51.9,31.01,SSE,159,0.0,0.0,56,0.00,,---,0.00,VWS V14.01,2013-09-26 02:42:00,
2013-09-25 21:47:00,68.2,51.9,31.01,SW,216,2.2,2.2,56,0.00,,---,0.00,VWS V14.01,2013-09-26 02:47:00,
2013-09-25 21:53:00,68.0,51.7,31.01,ENE,60,0.0,0.0,56,0.00,,---,0.00,VWS V14.01,2013-09-26 02:53:00,
2013-09-25 21:59:00,67.8,52.0,31.01,SSE,150,0.0,0.0,57,0.00,,---,0.00,VWS V14.01,2013-09-26 02:59:00,
2013-09-25 22:04:00,67.6,51.9,31.01,East,95,0.0,0.0,57,0.00,,---,0.00,VWS V14.01,2013-09-26 03:04:00,
2013-09-25 22:10:00,67.3,51.5,31.01,SSW,192,0.0,2.2,57,0.00,,---,0.00,VWS V14.01,2013-09-26 03:10:00,
2013-09-25 22:15:00,67.3,52.0,31.01,SSW,197,0.0,0.0,58,0.00,,---,0.00,VWS V14.01,2013-09-26 03:15:00,
2013-09-25 22:20:00,67.1,52.3,31.01,ESE,116,0.0,0.0,59,0.00,,---,0.00,VWS V14.01,2013-09-26 03:20:00,
2013-09-25 22:25:00,66.9,52.1,31.01,ESE,103,0.0,0.0,59,0.00,,---,0.00,VWS V14.01,2013-09-26 03:25:00,
2013-09-25 22:31:00,66.7,52.4,31.01,East,96,0.0,0.0,60,0.00,,---,0.00,VWS V14.01,2013-09-26 03:31:00,
2013-09-25 22:36:00,66.6,52.7,31.01,South,189,0.0,0.0,61,0.00,,---,0.00,VWS V14.01,2013-09-26 03:36:00,
2013-09-25 22:42:00,66.6,52.7,31.01,East,99,0.0,0.0,61,0.00,,---,0.00,VWS V14.01,2013-09-26 03:42:00,
2013-09-25 22:47:00,66.4,53.0,31.01,NNE,33,0.0,0.0,62,0.00,,---,0.00,VWS V14.01,2013-09-26 03:47:00,
2013-09-25 22:53:00,66.2,52.8,31.01,East,91,0.0,0.0,62,0.00,,---,0.00,VWS V14.01,2013-09-26 03:53:00,
2013-09-25 22:58:00,66.2,52.8,31.01,East,97,0.0,0.0,62,0.00,,---,0.00,VWS V14.01,2013-09-26 03:58:00,
2013-09-25 23:01:00,66.0,53.1,31.01,ESE,118,0.0,0.0,63,0.00,,---,0.00,VWS V14.01,2013-09-26 04:01:00,
2013-09-25 23:02:00,66.0,53.1,31.01,ESE,118,0.0,0.0,63,0.00,,---,0.00,VWS V14.01,2013-09-26 04:02:00,
2013-09-25 23:04:00,65.8,52.9,31.01,ESE,121,0.0,0.0,63,0.00,,---,0.00,VWS V14.01,2013-09-26 04:04:00,
2013-09-25 23:09:00,65.8,52.9,31.01,ESE,120,0.0,0.0,63,0.00,,---,0.00,VWS V14.01,2013-09-26 04:09:00,
2013-09-25 23:11:00,65.8,52.9,31.01,ESE,119,0.0,0.0,63,0.00,,---,0.00,VWS V14.01,2013-09-26 04:11:00,
2013-09-25 23:17:00,65.5,53.0,31.01,SSE,158,0.0,0.0,64,0.00,,---,0.00,VWS V14.01,2013-09-26 04:17:00,
2013-09-25 23:23:00,65.5,53.0,31.01,ENE,70,0.0,0.0,64,0.00,,---,0.00,VWS V14.01,2013-09-26 04:23:00,
2013-09-25 23:24:00,65.1,53.1,31.01,ESE,119,0.0,0.0,65,0.00,,---,0.00,VWS V14.01,2013-09-26 04:24:00,
2013-09-25 23:29:00,65.1,53.5,31.01,SW,225,0.0,0.0,66,0.00,,---,0.00,VWS V14.01,2013-09-26 04:29:00,
2013-09-25 23:35:00,65.1,53.9,31.01,South,184,0.0,0.0,67,0.00,,---,0.00,VWS V14.01,2013-09-26 04:35:00,
2013-09-25 23:41:00,64.9,54.1,31.01,SSW,200,0.0,0.0,68,0.00,,---,0.00,VWS V14.01,2013-09-26 04:41:00,
2013-09-25 23:46:00,64.8,54.0,31.01,SSE,152,0.0,0.0,68,0.00,,---,0.00,VWS V14.01,2013-09-26 04:46:00,
2013-09-25 23:52:00,64.8,54.0,31.01,ESE,115,0.0,0.0,68,0.00,,---,0.00,VWS V14.01,2013-09-26 04:52:00,
2013-09-25 23:58:00,64.6,53.8,31.01,SW,217,0.0,0.0,68,0.00,,---,0.00,VWS V14.01,2013-09-26 04:58:00,